Pula, Croatia

4:21 AM CET on December 13, 2017 (GMT +0100)
Pula

Weather History for LDPL - March, 2013

Change the Weather History Date:

Tuesday, March 5, 2013

  Actual Average Record
Temperature  
Mean Temperature 41 °F -  
Max Temperature 54 °F - - ()
Min Temperature 28 °F - - ()
Degree Days  
Heating Degree Days 24    
Moisture  
Dew Point 33 °F    
Average Humidity 60    
Maximum Humidity 93    
Minimum Humidity 24    
Precipitation  
Precipitation 0.00 in - - ()
Sea Level Pressure  
Sea Level Pressure 30.18 in    
Wind  
Wind Speed 6 mph ()    
Max Wind Speed 13 mph    
Max Gust Speed -    
Visibility 8.9 miles    
Events      
T = Trace of Precipitation, MM = Missing Value Source: Averaged Metar Reports

Daily Weather History Graph

Daily Weather History Graph

Search for Another Location

Airport or City:

Trip Planner

Search our weather history database for the weather conditions in past years. The results will help you decide how hot, cold, wet, or windy it might be!

Date:

Astronomy

Mar. 05, 2013 Rise Set
Actual Time 6:35 AM CET 5:57 PM CET
Civil Twilight 6:05 AM CET 6:26 PM CET
Nautical Twilight 5:31 AM CET 7:00 PM CET
Astronomical Twilight 4:57 AM CET 7:34 PM CET
Moon 1:41 AM CET (3/5) 11:07 AM CET (3/5)
Length of Visible Light 12h 20m
Length of Day
11h 22m
Last Quarter, 44% of the Moon is Illuminated
Mar 5
Last Quarter
Mar 11
New
Mar 19
First Quarter
Mar 27
Full
Apr 3
Last Quarter

Hourly Weather History & Observations

Time (CET) Temp. Windchill Dew Point Humidity Pressure Visibility Wind Dir Wind Speed Gust Speed Precip Events Conditions
12:00 AM 39.2 °F 35.9 °F 24.8 °F 56% 30.21 in - East 4.6 mph - N/A   Clear
12:30 AM 37.4 °F 33.8 °F 24.8 °F 60% 30.21 in - ENE 4.6 mph - N/A   Clear
1:00 AM 37 °F - 23 °F 45% 30.23 in 19 mi ENE 4.5 mph - -  
1:00 AM 37.4 °F 33.8 °F 24.8 °F 60% 30.21 in - ENE 4.6 mph - N/A   Clear
1:30 AM 37.4 °F 33.8 °F 23.0 °F 56% 30.21 in - ENE 4.6 mph - N/A   Clear
2:00 AM 39.2 °F 35.0 °F 21.2 °F 49% 30.21 in - ENE 5.8 mph - N/A   Clear
2:30 AM 39.2 °F 35.9 °F 21.2 °F 49% 30.21 in - ENE 4.6 mph - N/A   Clear
3:00 AM 39.2 °F 35.9 °F 21.2 °F 49% 30.21 in - ENE 4.6 mph - N/A   Clear
3:30 AM 37.4 °F 33.8 °F 21.2 °F 52% 30.21 in - NE 4.6 mph - N/A   Clear
4:00 AM 38 °F - 21 °F 37% 30.22 in 19 mi ENE 4.5 mph - -  
4:00 AM 37.4 °F 33.8 °F 21.2 °F 52% 30.18 in - ENE 4.6 mph - N/A   Clear
4:30 AM 39.2 °F 35.0 °F 21.2 °F 49% 30.18 in - ENE 5.8 mph - N/A   Clear
5:00 AM 39 °F - 21 °F 36% 30.21 in 19 mi ENE 4.5 mph - -  
5:00 AM 37.4 °F 33.8 °F 23.0 °F 56% 30.18 in - ENE 4.6 mph - N/A   Clear
5:30 AM 32.0 °F 27.5 °F 19.4 °F 60% 30.18 in - NE 4.6 mph - N/A   Clear
6:00 AM 32 °F - 19 °F 45% 30.23 in 19 mi NE 2.2 mph - -  
6:00 AM 32.0 °F - 19.4 °F 60% 30.21 in - Variable 2.3 mph - N/A   Clear
6:30 AM 35.6 °F - 19.4 °F 52% 30.18 in - Variable 2.3 mph - N/A   Clear
7:00 AM 38 °F - 21 °F 37% 30.22 in 22 mi East 6.7 mph - -   Clear
7:00 AM 39.2 °F 35.0 °F 21.2 °F 49% 30.18 in - East 5.8 mph - N/A   Clear
7:30 AM 42.8 °F 39.3 °F 23.0 °F 46% 30.21 in - East 5.8 mph - N/A   Clear
8:00 AM 44.6 °F 40.7 °F 26.6 °F 49% 30.21 in - East 6.9 mph - N/A   Clear
8:30 AM 50.0 °F - 26.6 °F 40% 30.21 in - East 6.9 mph - N/A   Clear
9:00 AM 51.8 °F - 26.6 °F 38% 30.21 in - East 9.2 mph - N/A   Clear
9:30 AM 51.8 °F - 26.6 °F 38% 30.21 in - East 11.5 mph - N/A   Clear
10:00 AM 52 °F - 26 °F 24% 30.22 in 25 mi East 11.2 mph - -   Clear
10:00 AM 51.8 °F - 26.6 °F 38% 30.21 in - East 11.5 mph - N/A   Clear
10:30 AM 51.8 °F - 26.6 °F 38% 30.21 in - East 12.7 mph - N/A   Clear
11:00 AM 53.6 °F - 28.4 °F 38% 30.21 in - East 10.4 mph - N/A   Clear
11:30 AM 53.6 °F - 32.0 °F 44% 30.21 in - East 10.4 mph - N/A   Clear
12:00 PM 53.6 °F - 33.8 °F 47% 30.21 in - ESE 9.2 mph - N/A   Clear
12:30 PM 53.6 °F - 33.8 °F 47% 30.21 in - ESE 8.1 mph - N/A   Clear
1:00 PM 53 °F - 33 °F 35% 30.22 in 19 mi ESE 8.9 mph - -   Clear
1:00 PM 53.6 °F - 33.8 °F 47% 30.18 in - ESE 8.1 mph - N/A   Clear
1:30 PM 53.6 °F - 39.2 °F 58% 30.18 in 6.2 mi ESE 9.2 mph - N/A   Partly Cloudy
2:00 PM 53.6 °F - 42.8 °F 67% 30.18 in 6.2 mi ESE 9.2 mph - N/A   Scattered Clouds
2:30 PM 53.6 °F - 42.8 °F 67% 30.18 in 6.2 mi ESE 8.1 mph - N/A   Scattered Clouds
3:00 PM 53.6 °F - 44.6 °F 72% 30.18 in 6.2 mi ESE 9.2 mph - N/A   Partly Cloudy
3:30 PM 53.6 °F - 46.4 °F 77% 30.18 in 6.2 mi Variable 5.8 mph - N/A   Partly Cloudy
4:00 PM 53 °F - 45 °F 67% 30.19 in 9 mi SE 6.7 mph - -   Scattered Clouds
4:00 PM 53.6 °F - 44.6 °F 72% 30.18 in 6.2 mi SE 6.9 mph - N/A   Partly Cloudy
4:30 PM 51.8 °F - 44.6 °F 76% 30.15 in 6.2 mi SE 6.9 mph - N/A   Partly Cloudy
5:00 PM 51.8 °F - 44.6 °F 76% 30.15 in - SE 4.6 mph - N/A   Clear
5:30 PM 50.0 °F - 44.6 °F 82% 30.12 in - East 4.6 mph - N/A   Clear
6:00 PM 50.0 °F - 44.6 °F 82% 30.12 in 6.2 mi East 4.6 mph - N/A   Scattered Clouds
6:30 PM 48.2 °F - 42.8 °F 82% 30.12 in 6.2 mi East 5.8 mph - N/A   Scattered Clouds
7:00 PM 49 °F - 46 °F 83% 30.15 in 9 mi East 6.7 mph - -   Scattered Clouds
7:00 PM 48.2 °F - 46.4 °F 93% 30.12 in 6.2 mi East 6.9 mph - N/A   Partly Cloudy
7:30 PM 50.0 °F - 46.4 °F 87% 30.12 in 6.2 mi East 8.1 mph - N/A   Scattered Clouds
8:00 PM 50.0 °F - 46.4 °F 87% 30.12 in 6.2 mi East 6.9 mph - N/A   Mostly Cloudy
8:30 PM 50.0 °F - 46.4 °F 87% 30.12 in 6.2 mi East 8.1 mph - N/A   Mostly Cloudy
9:00 PM 50.0 °F - 44.6 °F 82% 30.12 in 6.2 mi East 6.9 mph - N/A   Scattered Clouds
9:30 PM 51.8 °F - 46.4 °F 82% 30.12 in 6.2 mi East 6.9 mph - N/A   Partly Cloudy
10:00 PM 51 °F - 46 °F 77% 30.14 in 9 mi East 4.5 mph - -   Overcast
10:00 PM 50.0 °F - 46.4 °F 87% 30.12 in 6.2 mi East 4.6 mph - N/A   Partly Cloudy
10:30 PM 51.8 °F - 46.4 °F 82% 30.12 in 6.2 mi East 5.8 mph - N/A   Scattered Clouds
11:00 PM 51.8 °F - 46.4 °F 82% 30.09 in 6.2 mi East 5.8 mph - N/A   Scattered Clouds
11:30 PM 50.0 °F - 46.4 °F 87% 30.09 in 6.2 mi East 6.9 mph - N/A   Scattered Clouds